| time (UTC) | temp F | wind direction | speed knots | gust knots | rain 1hr in | rain 24hr in | rain mn in | humidity % | barometer mb |
| 20260507001258 | 39 | 225 | 7.0 | 9.6 | 0.00 | 0.27 | 0.08 | 84 | 1014.0 |
| 20260507000255 | 39 | 135 | 2.6 | 3.5 | 0.01 | 0.27 | 0.08 | 84 | 1013.6 |
| 20260506235246 | 39 | 180 | 6.1 | 7.0 | 0.02 | 0.27 | 0.08 | 84 | 1013.7 |
| 20260506234244 | 39 | 270 | 5.2 | 9.6 | 0.05 | 0.27 | 0.08 | 83 | 1013.7 |
| 20260506233240 | 38 | 270 | 5.2 | 7.8 | 0.06 | 0.27 | 0.08 | 83 | 1013.5 |
| 20260506232235 | 38 | 180 | 2.6 | 3.5 | 0.07 | 0.27 | 0.08 | 83 | 1013.2 |
| 20260506231232 | 38 | 180 | 1.7 | 3.5 | 0.08 | 0.27 | 0.08 | 82 | 1013.4 |
| 20260506230228 | 38 | 135 | 0.9 | 1.7 | 0.07 | 0.26 | 0.07 | 82 | 1013.4 |
| 20260506225218 | 38 | 135 | 3.5 | 4.3 | 0.06 | 0.25 | 0.06 | 82 | 1013.4 |
| 20260506224219 | 39 | 225 | 5.2 | 7.0 | 0.05 | 0.22 | 0.04 | 81 | 1013.7 |
| 20260506223211 | 39 | 180 | 9.6 | 9.6 | 0.07 | 0.21 | 0.02 | 81 | 1013.7 |
| 20260506222211 | 39 | 180 | 3.5 | 5.2 | 0.06 | 0.20 | 0.01 | 80 | 1013.4 |
| 20260506221209 | 39 | 225 | 4.3 | 7.0 | 0.05 | 0.19 | 0.00 | 79 | 1013.6 |
| 20260506220226 | 39 | 90 | 1.7 | 3.5 | 0.05 | 0.19 | 0.00 | 77 | 1013.5 |
| 20260506215201 | 40 | 135 | 3.5 | 3.5 | 0.05 | 0.19 | 0.19 | 75 | 1013.4 |
| 20260506214151 | 40 | 45 | 3.5 | 4.3 | 0.04 | 0.18 | 0.18 | 73 | 1013.6 |
| 20260506213213 | 42 | 270 | 12.2 | 16.5 | 0.00 | 0.14 | 0.14 | 72 | 1013.3 |
| 20260506212144 | 42 | 270 | 5.2 | 7.0 | 0.00 | 0.14 | 0.14 | 72 | 1013.0 |
| 20260506211144 | 42 | 315 | 3.5 | 5.2 | 0.00 | 0.14 | 0.14 | 72 | 1013.0 |
| 20260506210140 | 42 | 135 | 5.2 | 7.0 | 0.00 | 0.14 | 0.14 | 72 | 1012.9 |
| 20260506205131 | 42 | 180 | 3.5 | 4.3 | 0.00 | 0.14 | 0.14 | 72 | 1012.8 |
| 20260506204127 | 42 | 180 | 2.6 | 3.5 | 0.00 | 0.14 | 0.14 | 72 | 1012.8 |
| 20260506203124 | 42 | 225 | 4.3 | 6.1 | 0.00 | 0.14 | 0.14 | 71 | 1012.9 |
| 20260506202119 | 43 | 248 | 5.2 | 7.8 | 0.00 | 0.14 | 0.14 | 71 | 1013.0 |
| 20260506201114 | 43 | 225 | 5.2 | 7.0 | 0.00 | 0.14 | 0.14 | 71 | 1012.7 |
| 20260506200109 | 42 | 135 | 5.2 | 7.8 | 0.00 | 0.14 | 0.14 | 71 | 1012.8 |
| 20260506195106 | 42 | 90 | 3.5 | 4.3 | 0.00 | 0.14 | 0.14 | 70 | 1012.8 |
| 20260506194104 | 42 | 45 | 3.5 | 3.5 | 0.00 | 0.14 | 0.14 | 70 | 1012.9 |
| 20260506193101 | 43 | 315 | 3.5 | 5.2 | 0.00 | 0.14 | 0.14 | 70 | 1012.9 |
| 20260506192053 | 43 | 180 | 5.2 | 7.0 | 0.00 | 0.14 | 0.14 | 68 | 1012.8 |
| 20260506191111 | 44 | 225 | 5.2 | 7.8 | 0.00 | 0.14 | 0.14 | 67 | 1012.8 |
| 20260506190047 | 44 | 225 | 7.0 | 8.7 | 0.00 | 0.14 | 0.14 | 66 | 1012.6 |
| 20260506185042 | 44 | 270 | 7.0 | 9.6 | 0.00 | 0.14 | 0.14 | 67 | 1012.6 |
| 20260506184040 | 45 | 270 | 3.5 | 6.1 | 0.00 | 0.14 | 0.14 | 67 | 1012.6 |
| 20260506183033 | 45 | 270 | 6.1 | 7.8 | 0.00 | 0.14 | 0.14 | 65 | 1012.4 |
| 20260506182028 | 45 | 225 | 5.2 | 7.0 | 0.00 | 0.14 | 0.14 | 64 | 1012.4 |
| 20260506181024 | 45 | 270 | 3.5 | 4.3 | 0.00 | 0.14 | 0.14 | 62 | 1012.4 |
| 20260506180022 | 46 | 315 | 6.1 | 7.8 | 0.00 | 0.14 | 0.14 | 54 | 1012.4 |
| 20260506175012 | 46 | 225 | 7.0 | 8.7 | 0.00 | 0.14 | 0.14 | 53 | 1012.4 |
| 20260506174052 | 48 | 225 | 5.2 | 7.8 | 0.00 | 0.14 | 0.14 | 52 | 1012.3 |
| 20260506173010 | 49 | 270 | 5.2 | 7.0 | 0.00 | 0.14 | 0.14 | 54 | 1012.2 |
| 20260506172007 | 47 | 180 | 5.2 | 7.0 | 0.00 | 0.14 | 0.14 | 53 | 1012.3 |
| 20260506171023 | 47 | 248 | 8.7 | 10.4 | 0.00 | 0.14 | 0.14 | 54 | 1012.2 |
| 20260506165953 | 47 | 225 | 7.0 | 8.7 | 0.00 | 0.14 | 0.14 | 54 | 1012.2 |
| 20260506164954 | 47 | 248 | 5.2 | 7.0 | 0.00 | 0.14 | 0.14 | 53 | 1012.3 |
| 20260506163949 | 47 | 225 | 6.1 | 7.0 | 0.00 | 0.14 | 0.14 | 53 | 1012.2 |
| 20260506162945 | 47 | 270 | 7.0 | 10.4 | 0.00 | 0.14 | 0.14 | 51 | 1012.2 |
| 20260506161938 | 48 | 225 | 4.3 | 7.0 | 0.00 | 0.14 | 0.14 | 51 | 1012.1 |
| 20260506160935 | 49 | 248 | 7.0 | 7.8 | 0.00 | 0.14 | 0.14 | 50 | 1012.3 |
| 20260506155950 | 51 | 0 | 7.0 | 9.6 | 0.00 | 0.14 | 0.14 | 49 | 1012.3 |
| 20260506154926 | 53 | 270 | 9.6 | 11.3 | 0.00 | 0.14 | 0.14 | 51 | 1012.5 |
| 20260506153920 | 50 | 225 | 7.0 | 8.7 | 0.00 | 0.14 | 0.14 | 54 | 1012.5 |
| 20260506152913 | 49 | 270 | 6.1 | 7.0 | 0.00 | 0.14 | 0.14 | 54 | 1012.6 |
| 20260506151934 | 48 | 315 | 3.5 | 5.2 | 0.00 | 0.14 | 0.14 | 54 | 1012.4 |
| 20260506150911 | 47 | 315 | 5.2 | 7.0 | 0.00 | 0.14 | 0.14 | 53 | 1012.6 |
| 20260506145908 | 47 | 248 | 7.0 | 9.6 | 0.00 | 0.14 | 0.14 | 52 | 1012.6 |
| 20260506145002 | 48 | 270 | 7.0 | 8.7 | 0.00 | 0.14 | 0.14 | 51 | 1012.4 |
| 20260506144002 | 51 | 225 | 5.2 | 7.0 | 0.00 | 0.14 | 0.14 | 52 | 1012.3 |
| 20260506142954 | 50 | 180 | 9.6 | 12.2 | 0.00 | 0.14 | 0.14 | 54 | 1012.3 |
| 20260506141949 | 49 | 270 | 13.0 | 14.8 | 0.00 | 0.14 | 0.14 | 57 | 1012.8 |
| 20260506141006 | 49 | 338 | 4.3 | 7.0 | 0.00 | 0.14 | 0.14 | 59 | 1012.7 |
| 20260506135941 | 47 | 225 | 8.7 | 9.6 | 0.00 | 0.14 | 0.14 | 58 | 1012.8 |
| 20260506134934 | 47 | 90 | 7.0 | 9.6 | 0.00 | 0.14 | 0.14 | 56 | 1012.8 |
| 20260506134004 | 48 | 270 | 7.0 | 8.7 | 0.00 | 0.14 | 0.14 | 55 | 1012.5 |
| 20260506132953 | 48 | 203 | 6.1 | 7.0 | 0.00 | 0.14 | 0.14 | 55 | 1012.7 |
| 20260506131951 | 48 | 225 | 7.0 | 9.6 | 0.00 | 0.14 | 0.14 | 58 | 1012.8 |
| 20260506130948 | 47 | 158 | 2.6 | 3.5 | 0.00 | 0.14 | 0.14 | 60 | 1012.7 |
| 20260506125942 | 47 | 180 | 3.5 | 5.2 | 0.00 | 0.14 | 0.14 | 60 | 1012.8 |
| 20260506124936 | 47 | 225 | 5.2 | 7.0 | 0.00 | 0.14 | 0.14 | 61 | 1012.6 |
| 20260506123936 | 47 | 135 | 6.1 | 7.0 | 0.00 | 0.14 | 0.14 | 61 | 1012.7 |
| 20260506122930 | 47 | 248 | 5.2 | 6.1 | 0.00 | 0.14 | 0.14 | 63 | 1012.5 |
| 20260506121923 | 47 | 248 | 6.1 | 8.7 | 0.00 | 0.14 | 0.14 | 62 | 1012.7 |
| 20260506120921 | 47 | 0 | 8.7 | 11.3 | 0.00 | 0.14 | 0.14 | 63 | 1012.7 |
| 20260506115917 | 47 | 270 | 7.0 | 9.6 | 0.00 | 0.14 | 0.14 | 63 | 1012.8 |
| 20260506114909 | 47 | 225 | 3.5 | 8.7 | 0.00 | 0.14 | 0.14 | 66 | 1012.5 |
| 20260506113911 | 47 | 225 | 5.2 | 7.0 | 0.00 | 0.14 | 0.14 | 70 | 1012.4 |
| 20260506112907 | 45 | 135 | 3.5 | 4.3 | 0.00 | 0.14 | 0.14 | 71 | 1012.8 |
| 20260506111858 | 44 | 225 | 6.1 | 7.0 | 0.00 | 0.17 | 0.14 | 71 | 1012.5 |
| 20260506110858 | 45 | 270 | 7.0 | 9.6 | 0.00 | 0.22 | 0.14 | 72 | 1012.8 |
| 20260506105914 | 44 | 248 | 5.2 | 7.0 | 0.00 | 0.27 | 0.14 | 71 | 1012.6 |
| 20260506104849 | 44 | 248 | 7.0 | 9.6 | 0.00 | 0.28 | 0.14 | 71 | 1012.8 |
| 20260506103845 | 44 | 248 | 7.0 | 8.7 | 0.00 | 0.28 | 0.14 | 71 | 1012.7 |
| 20260506102835 | 44 | 225 | 7.8 | 9.6 | 0.00 | 0.28 | 0.14 | 72 | 1012.4 |
| 20260506101853 | 45 | 90 | 4.3 | 7.0 | 0.00 | 0.30 | 0.14 | 76 | 1012.4 |
| 20260506100831 | 45 | 225 | 7.0 | 8.7 | 0.00 | 0.30 | 0.14 | 80 | 1012.3 |
| 20260506095824 | 44 | 180 | 7.0 | 8.7 | 0.00 | 0.30 | 0.14 | 81 | 1012.5 |
| 20260506094819 | 44 | 315 | 7.0 | 10.4 | 0.00 | 0.30 | 0.14 | 83 | 1012.6 |
| 20260506093816 | 43 | 248 | 10.4 | 13.9 | 0.00 | 0.30 | 0.14 | 84 | 1012.4 |
| 20260506092814 | 42 | 270 | 7.0 | 9.6 | 0.00 | 0.30 | 0.14 | 83 | 1012.4 |
| 20260506091811 | 41 | 180 | 7.0 | 8.7 | 0.00 | 0.30 | 0.14 | 83 | 1012.5 |
| 20260506090806 | 41 | 225 | 6.1 | 8.7 | 0.02 | 0.30 | 0.14 | 83 | 1012.6 |
| 20260506085804 | 42 | 180 | 5.2 | 7.8 | 0.04 | 0.30 | 0.14 | 84 | 1012.5 |
| 20260506084757 | 42 | 270 | 6.1 | 9.6 | 0.05 | 0.31 | 0.14 | 85 | 1012.5 |
| 20260506083753 | 41 | 270 | 6.1 | 7.0 | 0.05 | 0.31 | 0.14 | 84 | 1012.7 |
| 20260506082750 | 40 | 0 | 4.3 | 6.1 | 0.05 | 0.31 | 0.14 | 83 | 1012.6 |
| 20260506081743 | 38 | 90 | 3.5 | 5.2 | 0.05 | 0.31 | 0.14 | 82 | 1012.6 |
| 20260506080739 | 38 | 0 | 0.9 | 1.7 | 0.02 | 0.28 | 0.12 | 81 | 1012.6 |
| 20260506072718 | 41 | 0 | 6.1 | 9.6 | 0.00 | 0.28 | 0.09 | 75 | 1012.2 |
| 20260506071733 | 42 | 270 | 7.0 | 13.0 | 0.00 | 0.28 | 0.09 | 78 | 1012.1 |
| 20260506070710 | 42 | 203 | 6.1 | 10.4 | 0.00 | 0.28 | 0.09 | 79 | 1011.8 |
| 20260506061656 | 41 | 135 | 4.3 | 6.1 | 0.01 | 0.33 | 0.09 | 85 | 1011.7 |
| 20260506060709 | 41 | 225 | 8.7 | 12.2 | 0.01 | 0.33 | 0.09 | 87 | 1011.8 |
| 20260506050622 | 38 | 180 | 5.2 | 7.0 | 0.00 | 0.32 | 0.08 | 88 | 1011.5 |
| 20260506044634 | 38 | 315 | 3.5 | 5.2 | 0.01 | 0.32 | 0.08 | 87 | 1011.7 |
| 20260506043610 | 38 | 180 | 5.2 | 7.8 | 0.01 | 0.32 | 0.08 | 87 | 1012.0 |
| 20260506042609 | 38 | 180 | 4.3 | 5.2 | 0.01 | 0.32 | 0.08 | 87 | 1011.7 |
| 20260506041604 | 38 | 203 | 3.5 | 5.2 | 0.02 | 0.32 | 0.08 | 87 | 1011.9 |
| 20260506040559 | 38 | 180 | 3.5 | 6.1 | 0.02 | 0.32 | 0.08 | 86 | 1011.6 |
| 20260506035556 | 37 | 293 | 5.2 | 7.0 | 0.04 | 0.32 | 0.08 | 86 | 1011.9 |
| 20260506034552 | 37 | 180 | 7.0 | 7.0 | 0.02 | 0.31 | 0.07 | 86 | 1011.8 |
| 20260506033545 | 37 | 270 | 1.7 | 2.6 | 0.04 | 0.31 | 0.07 | 86 | 1011.8 |
| 20260506032541 | 37 | 135 | 2.6 | 3.5 | 0.04 | 0.31 | 0.07 | 85 | 1012.0 |
| 20260506031536 | 37 | 135 | 1.7 | 2.6 | 0.02 | 0.30 | 0.06 | 85 | 1011.7 |
| 20260506030533 | 37 | 225 | 1.7 | 1.7 | 0.02 | 0.30 | 0.06 | 85 | 1011.7 |
| 20260506025547 | 37 | 180 | 5.2 | 6.1 | 0.01 | 0.28 | 0.05 | 85 | 1011.8 |
| 20260506024524 | 37 | 0 | 5.2 | 7.8 | 0.02 | 0.28 | 0.05 | 86 | 1011.8 |
| 20260506023540 | 38 | 225 | 3.5 | 5.2 | 0.01 | 0.27 | 0.04 | 86 | 1011.8 |
| 20260506022516 | 38 | 270 | 3.5 | 4.3 | 0.02 | 0.27 | 0.04 | 85 | 1011.7 |
| 20260506021511 | 38 | 270 | 3.5 | 4.3 | 0.02 | 0.27 | 0.04 | 85 | 1011.6 |
| 20260506020530 | 38 | 248 | 5.2 | 6.1 | 0.02 | 0.27 | 0.04 | 85 | 1011.6 |
| 20260506015506 | 38 | 270 | 3.5 | 4.3 | 0.02 | 0.27 | 0.04 | 85 | 1011.7 |
| 20260506014502 | 38 | 225 | 7.0 | 9.6 | 0.01 | 0.26 | 0.02 | 84 | 1012.1 |
| 20260506013455 | 37 | 180 | 7.0 | 9.6 | 0.02 | 0.26 | 0.02 | 84 | 1011.8 |
| 20260506012451 | 37 | 225 | 6.1 | 7.8 | 0.01 | 0.25 | 0.01 | 83 | 1011.6 |
| 20260506011448 | 37 | 270 | 4.3 | 7.0 | 0.01 | 0.25 | 0.01 | 83 | 1011.7 |
| 20260506010444 | 37 | 270 | 3.5 | 7.0 | 0.01 | 0.25 | 0.01 | 83 | 1011.8 |
| 20260506005434 | 37 | 135 | 7.0 | 10.4 | 0.01 | 0.25 | 0.01 | 82 | 1011.6 |
| 20260506004453 | 38 | 135 | 3.5 | 6.1 | 0.01 | 0.25 | 0.01 | 82 | 1012.0 |
| 20260506003428 | 37 | 270 | 1.7 | 1.7 | 0.00 | 0.24 | 0.00 | 81 | 1011.3 |
| 20260506002425 | 37 | 45 | 1.7 | 1.7 | 0.00 | 0.24 | 0.00 | 81 | 1011.5 |